Weather History for Mora, MN

Change the Weather History Date:

Friday, August 17, 2012

  Actual Average Record
Temperature  
Mean Temperature 55 °F -  
Max Temperature 69 °F 80 °F 97 °F (1934)
Min Temperature 41 °F 52 °F 39 °F (1981)
Degree Days  
Heating Degree Days 10    
Growing Degree Days 5 (Base 50)    
Moisture  
Dew Point 44 °F    
Average Humidity 70    
Maximum Humidity 100    
Minimum Humidity 37    
Precipitation  
Precipitation 0.00 in - - ()
Sea Level Pressure  
Sea Level Pressure 30.08 in    
Wind  
Wind Speed 3 mph (NW)    
Max Wind Speed 9 mph    
Max Gust Speed -    
Visibility 10 miles    
Events      
Averages and records for this station are not official NWS values.
T = Trace of Precipitation, MM = Missing Value Source: NWS Daily Summary

Daily Weather History Graph

Daily Weather History Graph

Search for Another Location

Airport:

Trip Planner

Search our weather history database for the weather conditions in past years. The results will help you decide how hot, cold, wet, or windy it might be!

Date:

Astronomy

Aug. 17, 2012 Rise Set
Actual Time 6:15 AM CDT 8:17 PM CDT
Civil Twilight 5:43 AM CDT 8:49 PM CDT
Nautical Twilight 5:03 AM CDT 9:28 PM CDT
Astronomical Twilight 4:19 AM CDT 10:12 PM CDT
Moon 6:22 AM CDT (8/17) 7:55 PM CDT (8/17)
Length of Visible Light 15h 05m
Length of Day
14h 01m
New Moon, 0% of the Moon is Illuminated
Aug 17
New Moon
Aug 24
First Quarter
Aug 31
Full
Sep 8
Last Quarter
Sep 15
New

Hourly Weather History & Observations

Time (CDT) Temp. Windchill Dew Point Humidity Pressure Visibility Wind Dir Wind Speed Gust Speed Precip Events Conditions
12:18 AM 50.0 °F - 44.6 °F 82% 30.03 in 10.0 mi WNW 5.8 mph - N/A   Clear
12:38 AM 48.2 °F - 42.8 °F 82% 30.04 in 10.0 mi WNW 3.5 mph - N/A   Clear
12:58 AM 46.4 °F - 42.8 °F 87% 30.05 in 10.0 mi Calm Calm - N/A   Clear
1:18 AM 44.6 °F - 42.8 °F 93% 30.05 in 10.0 mi Calm Calm - N/A   Clear
1:38 AM 44.6 °F - 42.8 °F 93% 30.05 in 10.0 mi Calm Calm - N/A   Clear
1:57 AM 44.6 °F - 42.8 °F 93% 30.05 in 10.0 mi Calm Calm - N/A   Clear
2:18 AM 44.6 °F - 42.8 °F 93% 30.06 in 10.0 mi Calm Calm - N/A   Clear
2:38 AM 44.6 °F - 42.8 °F 93% 30.06 in 10.0 mi Calm Calm - N/A   Clear
2:58 AM 42.8 °F - 41.0 °F 93% 30.07 in 10.0 mi Calm Calm - N/A   Clear
3:18 AM 42.8 °F - 41.0 °F 93% 30.06 in 5.0 mi Calm Calm - N/A   Clear
3:38 AM 41.0 °F - 41.0 °F 100% 30.07 in 7.0 mi Calm Calm - N/A   Clear
3:58 AM 42.8 °F - 41.0 °F 93% 30.07 in 10.0 mi Calm Calm - N/A   Clear
4:17 AM 41.0 °F - 39.2 °F 93% 30.08 in 10.0 mi Calm Calm - N/A   Clear
4:38 AM 42.8 °F - 41.0 °F 93% 30.07 in 7.0 mi Calm Calm - N/A   Clear
4:57 AM 41.0 °F - 37.4 °F 87% 30.07 in 7.0 mi Calm Calm - N/A   Clear
5:18 AM 41.0 °F - 39.2 °F 93% 30.07 in 10.0 mi Calm Calm - N/A   Clear
5:38 AM 41.0 °F - 39.2 °F 93% 30.08 in 10.0 mi Calm Calm - N/A   Clear
5:58 AM 41.0 °F - 39.2 °F 93% 30.09 in 10.0 mi Calm Calm - N/A   Clear
6:18 AM 41.0 °F - 39.2 °F 93% 30.09 in 10.0 mi Calm Calm - N/A   Clear
6:38 AM 42.8 °F - 41.0 °F 93% 30.09 in 10.0 mi Calm Calm - N/A   Clear
6:58 AM 42.8 °F - 41.0 °F 93% 30.09 in 10.0 mi Calm Calm - N/A   Clear
7:18 AM 42.8 °F - 41.0 °F 93% 30.10 in 10.0 mi Calm Calm - N/A   Clear
7:38 AM 44.6 °F - 44.6 °F 100% 30.10 in 10.0 mi Calm Calm - N/A   Clear
7:58 AM 46.4 °F 45.2 °F 44.6 °F 93% 30.10 in 10.0 mi West 3.5 mph - N/A   Clear
8:18 AM 50.0 °F - 46.4 °F 87% 30.11 in 10.0 mi WNW 3.5 mph - N/A   Clear
8:38 AM 51.8 °F - 46.4 °F 82% 30.11 in 10.0 mi NW 4.6 mph - N/A   Clear
8:58 AM 53.6 °F - 44.6 °F 72% 30.12 in 10.0 mi NW 3.5 mph - N/A   Clear
9:18 AM 55.4 °F - 44.6 °F 67% 30.12 in 10.0 mi NW 4.6 mph - N/A   Clear
9:38 AM 59.0 °F - 42.8 °F 55% 30.13 in 10.0 mi NW 4.6 mph - N/A   Clear
9:58 AM 60.8 °F - 42.8 °F 52% 30.13 in 10.0 mi NNW 5.8 mph - N/A   Clear
10:18 AM 60.8 °F - 42.8 °F 52% 30.13 in 10.0 mi NW 4.6 mph - N/A   Clear
10:38 AM 62.6 °F - 42.8 °F 48% 30.13 in 10.0 mi WNW 6.9 mph - N/A   Clear
10:58 AM 64.4 °F - 44.6 °F 49% 30.12 in 10.0 mi NNW 3.5 mph - N/A   Clear
11:38 AM 64.4 °F - 46.4 °F 52% 30.12 in 10.0 mi NW 5.8 mph - N/A   Clear
11:57 AM 64.4 °F - 41.0 °F 42% 30.11 in 10.0 mi NNW 6.9 mph - N/A   Clear
12:18 PM 64.4 °F - 41.0 °F 42% 30.11 in 10.0 mi North 8.1 mph - N/A   Clear
12:38 PM 64.4 °F - 41.0 °F 42% 30.10 in 10.0 mi NNW 8.1 mph - N/A   Clear
12:58 PM 68.0 °F - 41.0 °F 37% 30.11 in 10.0 mi NW 8.1 mph - N/A   Clear
1:18 PM 68.0 °F - 41.0 °F 37% 30.10 in 10.0 mi NNW 8.1 mph - N/A   Clear
1:38 PM 68.0 °F - 41.0 °F 37% 30.10 in 10.0 mi NNW 9.2 mph - N/A   Clear
1:58 PM 68.0 °F - 41.0 °F 37% 30.10 in 10.0 mi NW 9.2 mph - N/A   Clear
2:18 PM 69.8 °F - 44.6 °F 40% 30.09 in 10.0 mi WNW 6.9 mph - N/A   Clear
2:38 PM 68.0 °F - 42.8 °F 40% 30.08 in 10.0 mi NNW 6.9 mph - N/A   Clear
2:58 PM 69.8 °F - 42.8 °F 38% 30.08 in 10.0 mi NNW 8.1 mph - N/A   Clear
3:18 PM 69.8 °F - 42.8 °F 38% 30.08 in 10.0 mi NW 5.8 mph - N/A   Clear
3:38 PM 69.8 °F - 44.6 °F 40% 30.07 in 10.0 mi NNW 8.1 mph - N/A   Clear
3:58 PM 69.8 °F - 42.8 °F 38% 30.07 in 10.0 mi NW 3.5 mph - N/A   Clear
4:18 PM 69.8 °F - 44.6 °F 40% 30.06 in 10.0 mi NW 6.9 mph - N/A   Scattered Clouds
4:38 PM 69.8 °F - 44.6 °F 40% 30.06 in 10.0 mi North 3.5 mph - N/A   Scattered Clouds
4:58 PM 69.8 °F - 44.6 °F 40% 30.06 in 10.0 mi WNW 5.8 mph - N/A   Scattered Clouds
5:38 PM 69.8 °F - 44.6 °F 40% 30.06 in 10.0 mi WNW 3.5 mph - N/A   Scattered Clouds
5:58 PM 69.8 °F - 46.4 °F 43% 30.06 in 10.0 mi North 3.5 mph - N/A   Scattered Clouds
6:18 PM 69.8 °F - 46.4 °F 43% 30.06 in 10.0 mi NNW 8.1 mph - N/A   Clear
6:58 PM 64.4 °F - 46.4 °F 52% 30.05 in 10.0 mi Calm Calm - N/A   Clear
7:18 PM 64.4 °F - 46.4 °F 52% 30.05 in 10.0 mi Calm Calm - N/A   Clear
7:38 PM 64.4 °F - 46.4 °F 52% 30.05 in 10.0 mi Calm Calm - N/A   Clear
7:58 PM 64.4 °F - 50.0 °F 59% 30.05 in 10.0 mi Calm Calm - N/A   Clear
8:18 PM 59.0 °F - 48.2 °F 67% 30.05 in 10.0 mi Calm Calm - N/A   Clear
8:38 PM 55.4 °F - 50.0 °F 82% 30.05 in 10.0 mi Calm Calm - N/A   Clear
8:57 PM 53.6 °F - 48.2 °F 82% 30.05 in 10.0 mi Calm Calm - N/A   Clear
9:18 PM 53.6 °F - 50.0 °F 88% 30.05 in 10.0 mi Calm Calm - N/A   Clear
9:38 PM 53.6 °F - 50.0 °F 88% 30.06 in 10.0 mi Calm Calm - N/A   Clear
9:58 PM 51.8 °F - 48.2 °F 88% 30.06 in 10.0 mi Calm Calm - N/A   Clear
10:18 PM 50.0 °F - 48.2 °F 94% 30.06 in 10.0 mi Calm Calm - N/A   Clear
10:38 PM 50.0 °F - 48.2 °F 94% 30.06 in 10.0 mi Calm Calm - N/A   Clear
10:58 PM 50.0 °F - 48.2 °F 94% 30.06 in 10.0 mi Calm Calm - N/A   Clear
11:17 PM 50.0 °F - 48.2 °F 94% 30.05 in 10.0 mi Calm Calm - N/A   Clear
11:57 PM 48.2 °F - 46.4 °F 93% 30.05 in 7.0 mi Calm Calm - N/A   Clear